7 * 24
多渠道服务支持
JILIN-1 GAOFEN 3D30 是吉林一号高分系列的一颗遥感卫星,具备高分辨率对地观测能力,主要用于提供高精度的遥感影像数据。该卫星在农业监测、城市规划、环境评估等领域具有广泛应用价值。其先进成像技术和稳定运行性能,提升了我国商业遥感数据的获取效率和质量,为相关行业提供有力支持。
数据来源 | 国际轨道数据 |
星历时间: | 2025-10-18T06:56:45+0800 7小时前 查看轨道信息 |
半长轴: | 6807.328km |
偏心率: | 0.0009169 |
轨道倾角: | 97.570° |
近地点辐角 | 197.719° |
升交点赤经 | 26.523° |
平近点角 | 162.374° |
近地点: | 422.951km |
远地点: | 435.435km |
周期: | 93.159分钟 |
每日圈数: | 15.457447 |